Location: Newark
(43.4306°N, 0.3089°E)
Time: 15:34:52
(UTC+00:00)

S-56A Canister/Altair - Pass Details

Date: 21 August 2019
Orbit: 633 x 2499 km, 38.9° (Epoch: 22 October)

Event Time Altitude Azimuth Distance (km) Brightness Sun altitude
Rises 20:36:39 0° 222° (SW) 3,260 10.8 -17.5°
Reaches altitude 10° 20:39:42 10° 207° (SSW) 2,164 9.7 -18.0°
Enters shadow 20:41:55 19° 183° (S) 1,567 8.8 -18.3°
Maximum altitude 20:43:23 22° 156° (SSE) 1,407 - -18.5°
Drops below altitude 10° 20:46:49 10° 105° (ESE) 2,010 - -19.0°
Sets 20:49:32 0° 89° (E) 2,961 - -19.4°
